Погода в Шабровском

Россия / Свердловская область     56°38′22″N   60°34′27″E
темп.,
°C
ветер,
м/с
пор.,
м/с
влажн.,
%
обл.,
%
осадки,
мм/ч
давл.,
гПа
погр.,
м
23 апреля, пт
пт2323:00+6юз2474100 0.0 103196
02:00+5зсз1375100 0.0 103196
05:00+4зюз1280100 0.0 103178
08:00+5юз377999 0.3 1031575
11:00+7зюз3570100 0.3 10311003
14:00+7юз2570100 0.1 1031908
17:00+9юз2464100 0.1 10301002
20:00+7ссв2274100 0.0 102938
24 апреля, сб
сб2423:00+6св1283100 0.0 102844
02:00+6вюв1288100 0.0 102759
05:00+6юв2695100 0.4 1025306
08:00+6юв4693100 0.7 1024974
11:00+5юв4793100 1.0 1023862
14:00+5юв4894100 0.6 1022928
17:00+6юв4788100 0.8 1020889
20:00+5в31089100 0.8 1019518
25 апреля, вс
вс2523:00+4вюв3880100 0.8 1017262
02:00+3вюв2884100 0.0 1016234
05:00+2вюв278894 0.0 1015253
08:00+3вюв3996100 0.1 1015579
11:00+5юв4682100 0.2 1013868
14:00+5ююв468797 0.2 1012692
17:00+7ююв4773100 0.2 10101026
20:00+6зюз4108590 0.9 1010867
26 апреля, пн
пн2623:00+4юз31086100 0.9 1011589
02:00+3зюз51284100 0.2 10111094
05:00+2зюз6138698 0.2 1013787
08:00+4зюз613789 0.0 1014933
11:00+7зюз7126033 0.0 10151507
14:00+9зюз71139100 0.1 10152642
17:00+10зюз6114091 0.1 10152456
20:00+7зюз410535 0.0 1016574
27 апреля, вт
вт2723:00+4ююз3117153 0.0 1017316
02:00+3юз2673100 0.0 1016124
05:00+3ю2369100 0.0 101558
08:00+4ююв3773100 0.1 1013458
11:00+5ююв3580100 0.4 1012695
14:00+5в3689100 0.7 1010679
17:00+5вюв2589100 1.0 1009759
20:00+4в1292100 0.1 1008192